Regional Weather Roundup
Issued by NWS

Home | Current Version | Previous Version | Graphics & Text | Print | Product List | Glossary Off
Versions: 1 2 3 4 5 6 7 8 9 10 11 12 13 14 15 16 17 18 19 20 21 22 23 24 25 26 27 28 29 30 31 32 33 34 35 36 37 38 39 40 41 42 43 44 45 46 47 48 49 50

000
ASUS43 KTOP 021508
RWRKS

WEATHER ROUNDUP FOR KANSAS
NATIONAL WEATHER SERVICE GOODLAND KS
1000 AM CDT TUE SEP 02 2014

NOTE:  "FAIR" INDICATES FEW OR NO CLOUDS BELOW 12,000 FEET WITH NO
SIGNIFICANT WEATHER AND/OR OBSTRUCTIONS TO VISIBILITY.

KSZ001>006-013>018-027>032-041>047-021600-
NORTHWEST KANSAS

CITY           SKY/WX    TMP DP  RH WIND       PRES   REMARKS
GOODLAND       SUNNY     68  60  75 S18       30.11S
HAYS           SUNNY     70  61  73 NE5       30.03S
HILL CITY      SUNNY     67  58  72 CALM      30.05S
RUSSELL        SUNNY     72  64  76 VRB5      30.00F
$$

KSZ061>065-074>080-084>089-021600-
SOUTHWEST KANSAS

CITY           SKY/WX    TMP DP  RH WIND       PRES   REMARKS
DODGE CITY     FOG       67  65  93 NE12      30.03R VSB 1/2
ELKHART          N/A     67  62  84 N6          N/A
GARDEN CITY    CLOUDY    69  65  86 NE14      30.04S
GREAT BEND     CLOUDY    68  64  88 E8        30.01S
LIBERAL        CLOUDY    70  64  83 NE7       30.06R
PRATT          CLOUDY    70  68  94 E9        30.00R
$$

KSZ066>073-081>083-090>101-021600-
SOUTHEAST KANSAS

CITY           SKY/WX    TMP DP  RH WIND       PRES   REMARKS
CHANUTE        CLOUDY    69  67  93 CALM      30.00R
COFFEYVILLE    CLOUDY    68  66  93 E5        29.98R
HUTCHINSON     CLOUDY    72  68  87 E8        30.00R
MEDICINE LODGE   N/A     73  69  87 VRB3      29.99R
NEWTON         CLOUDY    70  66  88 E5        30.03F
PARSONS        CLOUDY    69  66  90 CALM      30.00R
WICHITA INTL   PTSUNNY   75  69  81 E9        29.97S
WICHITA JABRA  CLOUDY    73  69  87 E6        29.99S
WICHITA MCCONL CLOUDY    74  74 100 E8        29.99R
WINFIELD       CLOUDY    71  68  90 SE10      29.98S
$$

KSZ007>012-019>026-033>040-048>060-102>105-021600-
NORTHEAST KANSAS

CITY           SKY/WX    TMP DP  RH WIND       PRES   REMARKS
CONCORDIA      SUNNY     70  62  76 CALM      30.01S
EMPORIA        CLOUDY    70  69  97 S5        30.00R
LAWRENCE       CLOUDY    71  68  90 NW5       30.00R
MANHATTAN      MOSUNNY   71  66  84 NE6       30.00R
OLATHE IND     CLOUDY    69  69 100 CALM      30.01R FOG
OLATHE EXE     CLOUDY    70  68  93 NE3       30.00R FOG
SALINA         SUNNY     72  64  76 VRB3      30.01R
TOPEKA BILLARD PTSUNNY   72  69  90 CALM      30.01R
TOPEKA FORBES  CLOUDY    69  68  96 N6        30.00R FOG
$$


USA.gov is the U.S. government's official web portal to all federal, state and local government web resources and services.